FW9302 Weather Reports


Display with metric or nautical units.
time (UTC)temp
F
wind
direction
speed
MPH
gust
MPH
rain 1hr
in
rain 24hr
in
rain mn
in
humidity
%
barometer
mb
20260506033242 69 122 0.0 2.0 0.00 0.00 0.00 62 1012.1
20260506032738 69 87 0.0 2.0 0.00 0.00 0.00 63 1011.9
20260506032235 69 155 0.0 3.0 0.00 0.00 0.00 62 1011.9
20260506031726 69 245 2.0 4.0 0.00 0.00 0.00 60 1011.8
20260506031224 69 258 0.0 5.0 0.00 0.00 0.00 61 1011.8
20260506030722 69 227 0.0 4.0 0.00 0.00 0.00 59 1012.0
20260506030219 70 2 2.0 4.0 0.00 0.00 0.00 60 1012.0
20260506025716 70 334 2.0 3.0 0.00 0.00 0.00 58 1011.9
20260506025212 70 301 1.0 6.0 0.00 0.00 0.00 59 1012.2
20260506024709 70 9 0.0 3.0 0.00 0.00 0.00 59 1012.3
20260506024205 70 51 2.0 4.0 0.00 0.00 0.00 58 1012.4
20260506023702 70 284 0.0 5.0 0.00 0.00 0.00 58 1012.0
20260506023200 70 197 0.0 4.0 0.00 0.00 0.00 58 1012.0
20260506022656 70 312 3.0 8.0 0.00 0.00 0.00 57 1011.6
20260506022153 70 284 1.0 5.0 0.00 0.00 0.00 57 1011.9
20260506021646 70 236 1.0 4.0 0.00 0.00 0.00 58 1011.8
20260506021143 70 284 0.0 5.0 0.00 0.00 0.00 58 1011.9
20260506020640 70 242 0.0 4.0 0.00 0.00 0.00 57 1011.6
20260506020137 70 136 0.0 4.0 0.00 0.00 0.00 57 1011.8
20260506015635 70 237 2.0 4.0 0.00 0.00 0.00 58 1011.7
20260506015131 70 240 1.0 3.0 0.00 0.00 0.00 56 1011.5
20260506014629 70 268 1.0 5.0 0.00 0.00 0.00 56 1011.5
20260506014124 70 256 3.0 7.0 0.00 0.00 0.00 55 1011.4
20260506013623 70 329 0.0 3.0 0.00 0.00 0.00 56 1011.5
20260506013119 70 245 2.0 4.0 0.00 0.00 0.00 56 1011.6
20260506012615 70 254 1.0 7.0 0.00 0.00 0.00 56 1011.3
20260506012111 70 336 1.0 9.0 0.00 0.00 0.00 55 1011.4
20260506011610 70 216 1.0 4.0 0.00 0.00 0.00 54 1011.4
20260506011106 70 270 4.0 8.0 0.00 0.00 0.00 55 1011.5
20260506010600 70 262 2.0 4.0 0.00 0.00 0.00 55 1010.9
20260506010056 70 239 3.0 9.0 0.00 0.00 0.00 53 1011.3
20260506005553 70 203 0.0 7.0 0.00 0.00 0.00 54 1011.1
20260506005049 70 245 0.0 4.0 0.00 0.00 0.00 57 1011.0
20260506004547 69 225 1.0 5.0 0.00 0.00 0.00 56 1011.0
20260506004043 70 355 0.0 3.0 0.00 0.00 0.00 55 1011.0
20260506003539 70 255 1.0 3.0 0.00 0.00 0.00 56 1011.4
20260506003035 70 274 2.0 7.0 0.00 0.00 0.00 55 1011.5
20260506002526 70 285 3.0 5.0 0.00 0.00 0.00 55 1011.5
20260506002022 69 359 0.0 3.0 0.00 0.00 0.00 58 1011.4
20260506001519 70 222 2.0 3.0 0.00 0.00 0.00 56 1011.3
20260506001016 69 297 2.0 3.0 0.00 0.00 0.00 57 1011.5
20260506000514 70 235 0.0 5.0 0.00 0.00 0.00 57 1011.4
20260506000011 69 328 0.0 4.0 0.00 0.00 0.00 58 1011.5
20260505235509 70 18 1.0 5.0 0.00 0.00 0.00 55 1011.3
20260505235005 69 209 1.0 4.0 0.00 0.00 0.00 57 1011.3
20260505234502 70 268 2.0 5.0 0.00 0.00 0.00 55 1011.7
20260505233959 70 271 0.0 5.0 0.00 0.00 0.00 55 1011.5
20260505233456 70 240 0.0 3.0 0.00 0.00 0.00 56 1011.5
20260505232954 70 228 0.0 4.0 0.00 0.00 0.00 58 1011.4
20260505232451 70 195 0.0 4.0 0.00 0.00 0.00 59 1011.6
20260505231948 69 254 0.0 6.0 0.00 0.00 0.00 59 1011.6
20260505231446 69 327 3.0 5.0 0.00 0.00 0.00 61 1011.0
20260505230944 69 254 0.0 3.0 0.00 0.00 0.00 62 1011.1
20260505230441 68 342 5.0 7.0 0.00 0.00 0.00 62 1011.1
20260505225937 68 268 0.0 3.0 0.00 0.00 0.00 69 1011.1
20260505225435 68 241 0.0 2.0 0.00 0.00 0.00 68 1011.6
20260505224930 67 189 0.0 3.0 0.00 0.00 0.00 72 1011.7
20260505224428 68 242 0.0 1.0 0.00 0.00 0.00 68 1011.6
20260505223925 68 15 3.0 4.0 0.00 0.00 0.00 62 1011.4
20260505223422 67 246 0.0 2.0 0.00 0.00 0.00 73 1011.3
20260505222918 66 210 0.0 2.0 0.00 0.00 0.00 75 1011.4
20260505222414 65 213 2.0 3.0 0.00 0.00 0.00 74 1011.5
20260505221910 66 187 0.0 3.0 0.00 0.00 0.00 75 1011.6
20260505221408 67 324 0.0 1.0 0.00 0.00 0.00 76 1011.7
20260505220905 66 213 0.0 2.0 0.00 0.00 0.00 71 1011.6
20260505220402 66 116 2.0 2.0 0.00 0.00 0.00 68 1011.4
20260505215859 67 250 1.0 3.0 0.02 0.00 0.00 72 1011.3
20260505215357 68 144 3.0 4.0 0.00 0.00 0.00 64 1011.3
20260505214855 69 264 2.0 10.0 0.00 0.00 0.00 55 1011.3
20260505214352 70 254 2.0 8.0 0.00 0.00 0.00 56 1011.7
20260505213849 71 330 4.0 6.0 0.00 0.00 0.00 50 1011.9
20260505213347 71 330 5.0 6.0 0.00 0.00 0.00 48 1011.9
20260505212843 72 260 0.0 4.0 0.00 0.00 0.00 49 1012.2
20260505212340 73 250 0.0 5.0 0.00 0.00 0.00 45 1012.4
20260505211836 74 277 1.0 6.0 0.00 0.00 0.00 44 1012.2
20260505211334 74 271 0.0 4.0 0.00 0.00 0.00 43 1012.5
20260505210830 74 291 1.0 8.0 0.00 0.00 0.00 43 1012.1
20260505210327 74 244 2.0 4.0 0.00 0.00 0.00 43 1012.2
20260505205824 75 242 3.0 8.0 0.00 0.00 0.00 41 1012.0
20260505205322 75 14 4.0 11.0 0.00 0.00 0.00 42 1012.2
20260505204819 75 356 2.0 6.0 0.00 0.00 0.00 43 1012.2
20260505204317 75 264 3.0 9.0 0.00 0.00 0.00 42 1012.4
20260505203814 75 265 0.0 11.0 0.00 0.00 0.00 45 1012.1
20260505203310 76 50 2.0 5.0 0.00 0.00 0.00 44 1012.3
20260505202807 76 262 2.0 5.0 0.00 0.00 0.00 44 1012.2
20260505202306 76 258 3.0 9.0 0.00 0.00 0.00 42 1012.4
20260505201800 76 281 2.0 10.0 0.00 0.00 0.00 42 1012.5
20260505201257 78 275 0.0 8.0 0.00 0.00 0.00 41 1012.6
20260505200755 78 20 5.0 6.0 0.00 0.00 0.00 40 1012.6
20260505200252 78 265 4.0 6.0 0.00 0.00 0.00 38 1012.5
20260505195747 77 243 3.0 11.0 0.00 0.00 0.00 38 1012.6
20260505195245 78 346 4.0 14.0 0.00 0.00 0.00 39 1012.5
20260505194742 77 231 4.0 9.0 0.00 0.00 0.00 40 1012.4
20260505194238 78 36 4.0 5.0 0.00 0.00 0.00 42 1012.6
20260505193734 79 355 8.0 8.0 0.00 0.00 0.00 42 1012.9
20260505193232 78 1 6.0 12.0 0.00 0.00 0.00 42 1012.8
20260505192730 77 19 1.0 12.0 0.00 0.00 0.00 44 1012.8
20260505192228 77 350 7.0 9.0 0.00 0.00 0.00 48 1012.7
20260505191726 77 267 3.0 12.0 0.00 0.00 0.00 45 1012.8
20260505191224 79 1 7.0 11.0 0.00 0.00 0.00 42 1012.9
20260505190720 78 328 3.0 10.0 0.00 0.00 0.00 44 1012.8
20260505190219 78 240 3.0 9.0 0.00 0.00 0.00 43 1013.2
20260505185716 76 236 3.0 8.0 0.00 0.00 0.00 45 1012.9
20260505185213 76 9 3.0 6.0 0.00 0.00 0.00 45 1013.0
20260505184709 77 248 12.0 12.0 0.00 0.00 0.00 45 1013.3
20260505184207 76 245 2.0 8.0 0.00 0.00 0.00 44 1013.4
20260505183703 75 248 5.0 12.0 0.00 0.00 0.00 48 1013.4
20260505183201 74 279 3.0 9.0 0.00 0.00 0.00 47 1013.6
20260505182656 76 258 3.0 10.0 0.00 0.00 0.00 46 1013.7
20260505182154 75 320 6.0 9.0 0.00 0.00 0.00 44 1013.9
20260505181650 76 269 1.0 8.0 0.00 0.00 0.00 46 1013.8
20260505181148 76 355 6.0 12.0 0.00 0.00 0.00 47 1013.7
20260505180644 75 208 6.0 9.0 0.00 0.00 0.00 46 1013.7
20260505180142 76 205 2.0 8.0 0.00 0.00 0.00 43 1013.7
20260505175637 75 201 3.0 11.0 0.00 0.00 0.00 44 1013.8
20260505175134 76 317 0.0 10.0 0.00 0.00 0.00 46 1013.7
20260505174630 75 335 1.0 11.0 0.00 0.00 0.00 45 1013.9
20260505174126 75 4 0.0 13.0 0.00 0.00 0.00 44 1014.0
20260505173618 75 16 1.0 9.0 0.00 0.00 0.00 47 1014.0
20260505173114 75 310 2.0 15.0 0.00 0.00 0.00 41 1013.9
20260505172612 75 352 2.0 8.0 0.00 0.00 0.00 46 1014.2
20260505172108 75 329 3.0 18.0 0.00 0.00 0.00 46 1014.3
20260505171603 75 265 4.0 6.0 0.00 0.00 0.00 42 1014.4
20260505171101 74 307 0.0 11.0 0.00 0.00 0.00 42 1014.5
20260505170557 75 334 3.0 11.0 0.00 0.00 0.00 43 1014.9
20260505170054 74 282 2.0 14.0 0.00 0.00 0.00 43 1015.1
20260505165549 74 344 3.0 10.0 0.00 0.00 0.00 48 1014.9
20260505165045 74 6 4.0 12.0 0.00 0.00 0.00 43 1015.0
20260505164541 73 266 5.0 11.0 0.00 0.00 0.00 46 1014.9
20260505164038 74 269 4.0 12.0 0.00 0.00 0.00 46 1015.1
20260505163537 74 247 3.0 5.0 0.00 0.00 0.00 48 1015.2
20260505163033 73 5 2.0 7.0 0.00 0.00 0.00 53 1015.1
20260505162526 73 239 4.0 8.0 0.00 0.00 0.00 50 1015.0
20260505162024 73 234 2.0 7.0 0.00 0.00 0.00 51 1014.8
20260505161520 73 289 0.0 5.0 0.00 0.00 0.00 51 1014.8
20260505161017 73 230 5.0 7.0 0.00 0.00 0.00 50 1014.6
20260505160515 73 347 1.0 5.0 0.00 0.00 0.00 52 1014.8
20260505152951 70 347 4.0 7.0 0.00 0.00 0.00 62 1015.1
20260505152449 70 348 4.0 7.0 0.00 0.00 0.00 62 1015.2
20260505151944 70 185 3.0 6.0 0.00 0.00 0.00 61 1015.3
20260505151439 69 249 2.0 7.0 0.00 0.00 0.00 60 1015.3
20260505150937 69 298 1.0 5.0 0.00 0.00 0.00 63 1015.0
20260505150434 68 17 4.0 8.0 0.00 0.00 0.00 63 1014.9
20260505140404 63 212 3.0 8.0 0.00 0.00 0.00 71 1015.2
20260505124817 55 221 2.0 3.0 0.00 0.00 0.00 81 1014.9
20260505124314 55 214 1.0 3.0 0.00 0.00 0.00 82 1015.0
20260505123810 55 208 3.0 5.0 0.00 0.00 0.00 81 1014.8
20260505123307 55 222 3.0 3.0 0.00 0.00 0.00 82 1014.9
20260505122803 55 227 3.0 4.0 0.00 0.00 0.00 81 1014.5
20260505122301 55 83 1.0 2.0 0.00 0.00 0.00 84 1014.4
20260505121757 54 226 0.0 3.0 0.00 0.00 0.00 84 1014.4
20260505121254 54 226 0.0 2.0 0.00 0.00 0.00 86 1014.4
20260505120750 53 233 3.0 3.0 0.00 0.00 0.00 88 1014.4
20260505120246 53 176 0.0 2.0 0.00 0.00 0.00 89 1014.4
20260505115745 52 219 1.0 3.0 0.00 0.00 0.00 89 1014.1
20260505115243 52 235 0.0 4.0 0.00 0.00 0.00 90 1014.2
20260505114740 51 216 1.0 3.0 0.00 0.00 0.00 91 1014.1
20260505114236 51 215 3.0 3.0 0.00 0.00 0.00 92 1014.0
20260505113733 50 227 2.0 3.0 0.00 0.00 0.00 92 1014.1
20260505113229 50 212 1.0 2.0 0.00 0.00 0.00 92 1014.1
20260505112720 50 214 2.0 3.0 0.00 0.00 0.00 92 1013.9
20260505112218 49 229 2.0 3.0 0.00 0.00 0.00 93 1013.8
20260505111717 49 224 1.0 2.0 0.00 0.00 0.00 92 1013.9
20260505111214 50 153 0.0 3.0 0.00 0.00 0.00 92 1013.7
20260505110709 50 208 1.0 3.0 0.00 0.00 0.00 91 1013.5
20260505110207 50 229 3.0 3.0 0.00 0.00 0.00 90 1013.7
20260505102143 51 260 0.0 2.0 0.00 0.00 0.00 88 1013.5
20260505101641 51 222 2.0 4.0 0.00 0.00 0.00 88 1013.3
20260505101137 51 214 0.0 4.0 0.00 0.00 0.00 88 1013.1
20260505100633 51 215 5.0 5.0 0.00 0.00 0.00 89 1013.2
20260505100130 51 224 0.0 3.0 0.00 0.00 0.00 86 1013.2
20260505095626 51 230 3.0 4.0 0.00 0.00 0.00 86 1013.0
20260505095124 51 197 0.0 2.0 0.00 0.00 0.00 87 1013.2
20260505094620 52 200 1.0 3.0 0.00 0.00 0.00 85 1013.1
20260505094116 53 213 0.0 3.0 0.00 0.00 0.00 84 1013.3
20260505093613 53 230 3.0 3.0 0.00 0.00 0.00 82 1013.3
20260505093110 54 225 2.0 4.0 0.00 0.00 0.00 79 1013.4
20260505092607 54 206 2.0 3.0 0.00 0.00 0.00 81 1013.3
20260505092106 55 235 2.0 4.0 0.00 0.00 0.00 79 1013.2
20260505091602 55 231 3.0 5.0 0.00 0.00 0.00 79 1013.3
20260505091101 55 228 2.0 3.0 0.00 0.00 0.00 79 1013.2
20260505090558 55 217 4.0 4.0 0.00 0.00 0.00 79 1013.4
20260505090056 54 242 3.0 4.0 0.00 0.00 0.00 82 1013.2
20260505085553 54 224 2.0 4.0 0.00 0.00 0.00 82 1013.2
20260505085051 53 226 3.0 4.0 0.00 0.00 0.00 84 1013.1
20260505084549 54 241 2.0 4.0 0.00 0.00 0.00 83 1013.2
20260505084047 53 220 3.0 3.0 0.00 0.00 0.00 84 1013.5
20260505083544 54 226 2.0 4.0 0.00 0.00 0.00 82 1013.4
20260505083040 53 235 2.0 3.0 0.00 0.00 0.00 84 1013.4
20260505082536 53 233 2.0 3.0 0.00 0.00 0.00 84 1013.2
20260505082033 54 230 2.0 4.0 0.00 0.00 0.00 83 1013.5
20260505081530 53 216 3.0 4.0 0.00 0.00 0.00 85 1013.6
20260505081027 53 214 1.0 3.0 0.00 0.00 0.00 87 1013.4
20260505080523 52 214 2.0 3.0 0.00 0.00 0.00 87 1013.5
20260505080020 53 235 1.0 3.0 0.00 0.00 0.00 86 1013.6
20260505075516 53 230 0.0 2.0 0.00 0.00 0.00 87 1013.5
20260505075013 53 222 1.0 3.0 0.00 0.00 0.00 86 1013.2
20260505074510 53 237 3.0 3.0 0.00 0.00 0.00 85 1013.3
20260505074007 53 213 2.0 3.0 0.00 0.00 0.00 85 1013.3
20260505073504 53 230 1.0 3.0 0.00 0.00 0.00 85 1013.5
20260505073003 53 226 2.0 3.0 0.00 0.00 0.00 86 1013.4
20260505072458 53 228 2.0 3.0 0.00 0.00 0.00 87 1013.2
20260505071954 53 229 2.0 3.0 0.00 0.00 0.00 86 1013.5
20260505071450 53 218 2.0 4.0 0.00 0.00 0.00 85 1013.4
20260505070948 54 217 2.0 2.0 0.00 0.00 0.00 84 1013.4
20260505070445 55 212 1.0 3.0 0.00 0.00 0.00 81 1013.3
20260505065940 56 233 2.0 3.0 0.00 0.00 0.00 78 1013.4
20260505065437 57 240 3.0 4.0 0.00 0.00 0.00 76 1013.5
20260505064934 58 225 2.0 3.0 0.00 0.00 0.00 76 1013.5
20260505064431 58 239 2.0 3.0 0.00 0.00 0.00 74 1013.6
20260505063929 57 214 2.0 3.0 0.00 0.00 0.00 75 1013.5
20260505063425 58 208 0.0 4.0 0.00 0.00 0.00 76 1013.6
20260505062922 58 236 2.0 4.0 0.00 0.00 0.00 74 1013.5
20260505062419 57 229 1.0 3.0 0.00 0.00 0.00 77 1013.7
20260505061916 57 225 2.0 4.0 0.00 0.00 0.00 77 1013.8
20260505061414 57 222 2.0 3.0 0.00 0.00 0.00 78 1013.6
20260505060911 57 230 0.0 3.0 0.00 0.00 0.00 77 1013.6
20260505060408 58 217 2.0 3.0 0.00 0.00 0.00 76 1013.7
20260505055904 58 218 2.0 3.0 0.00 0.00 0.00 75 1013.7
20260505055400 58 238 2.0 3.0 0.00 0.00 0.00 76 1013.5
20260505054857 58 231 2.0 3.0 0.00 0.00 0.00 77 1013.5
20260505054354 56 249 1.0 6.0 0.00 0.00 0.00 80 1013.5
20260505053853 55 230 3.0 3.0 0.00 0.00 0.00 85 1013.5
20260505053350 55 214 2.0 3.0 0.00 0.00 0.00 85 1013.9
20260505052846 56 169 0.0 2.0 0.00 0.00 0.00 84 1013.7
20260505052343 56 228 3.0 4.0 0.00 0.00 0.00 83 1013.7
20260505051840 56 228 1.0 3.0 0.00 0.00 0.00 82 1013.7
20260505051337 56 212 0.0 2.0 0.00 0.00 0.00 82 1013.7
20260505050836 56 222 1.0 2.0 0.00 0.00 0.00 82 1013.6
20260505050334 57 220 2.0 2.0 0.00 0.00 0.00 82 1013.6
20260505041301 59 239 3.0 4.0 0.00 0.00 0.00 78 1013.7
20260505040758 57 223 1.0 4.0 0.00 0.00 0.00 82 1013.7
20260505040256 58 317 0.0 2.0 0.00 0.00 0.00 81 1013.6
20260505035752 58 221 3.0 4.0 0.00 0.00 0.00 79 1013.7
20260505035248 58 236 0.0 3.0 0.00 0.00 0.00 80 1013.9
20260505034745 58 260 0.0 3.0 0.00 0.00 0.00 79 1013.6
20260505034242 58 236 1.0 3.0 0.00 0.00 0.00 79 1013.8
20260505033738 58 213 0.0 3.0 0.00 0.00 0.00 80 1013.7